Regional Weather Roundup
Issued by NWS Little Rock, AR

Home | Current Version | Previous Version | Graphics & Text | Print | Product List | Glossary On
Versions: 1 2 3 4 5 6 7 8 9 10 11 12 13 14 15 16 17 18 19 20 21 22 23 24 25 26 27 28 29 30 31 32 33 34 35 36 37 38 39 40 41 42 43 44 45 46 47 48 49 50
000
ASUS44 KLZK 192305
RWRLZK

WEATHER ROUNDUP FOR ARKANSAS
NATIONAL WEATHER SERVICE LITTLE ROCK AR
600 PM CDT SUN OCT 19 2014

NOTE: "FAIR" INDICATES FEW OR NO CLOUDS BELOW 12,000 FEET WITH NO
SIGNIFICANT WEATHER AND/OR OBSTRUCTIONS TO VISIBILITY.

ARZ001-003-010-029-200000-
NORTHWEST ARKANSAS

CITY           SKY/WX    TMP DP  RH WIND       PRES   REMARKS
FAYETTEVILLE   CLEAR     63  51  65 S8        30.09F
FORT SMITH     CLEAR     69  49  48 E3        30.08F
HARRISON       MOCLDY    62  48  60 SE6       30.09F
BENTONVILLE    CLEAR     64  48  55 S5        30.08F
ROGERS         CLEAR     65  50  58 S9        30.09F
SILOAM SPGS    CLEAR     64  48  55 SW7       30.09F
HIGHFILL       CLEAR     64  50  60 S7        30.08F
SPRINGDALE     CLEAR     66  50  55 SW5       30.10F
$$

ARZ004-005-016-200000-
NORTH CENTRAL ARKANSAS

CITY           SKY/WX    TMP DP  RH WIND       PRES   REMARKS
BATESVILLE     MOCLDY    64  45  48 SE5       30.10S
FLIPPIN        CLOUDY    63  45  51 CALM      30.09F
MTN HOME       MOCLDY    60  49  66 CALM      30.08F
$$

ARZ040-041-200000-
WEST CENTRAL ARKANSAS

CITY           SKY/WX    TMP DP  RH WIND       PRES   REMARKS
MENA           CLEAR     68  52  56 CALM      30.09F
MOUNT IDA      CLEAR     63  52  67 CALM      30.08F
$$

ARZ009-017-025-026-028-200000-
NORTHEAST ARKANSAS

CITY           SKY/WX    TMP DP  RH WIND       PRES   REMARKS
CORNING        FAIR      61  50  67 S6        30.11S
JONESBORO      PTCLDY    61  47  59 SE5       30.10F
NEWPORT        CLEAR     64  46  52 CALM      30.12S
WALNUT RIDGE   MOCLDY    63  30  29 CALM      30.11S
BLYTHEVILLE    PTCLDY    64  46  52 E3        30.11F
$$

ARZ022-023-033-042-044-200000-
CENTRAL ARKANSAS

CITY           SKY/WX    TMP DP  RH WIND       PRES   REMARKS
LITTLE ROCK    PTCLDY    67  44  43 CALM      30.10F
N LITTLE ROCK  PTCLDY    65  49  55 SE5       30.10F
JACKSONVILLE   CLOUDY    67  49  51 E1        30.10S
SEARCY         CLEAR     64  50  60 CALM      30.12S
HOT SPRINGS    CLEAR     67  46  47 S3        30.10F
RUSSELLVILLE   PTCLDY    64  53  67 CALM      30.09F
$$

ARZ036-200000-
EAST ARKANSAS

CITY           SKY/WX    TMP DP  RH WIND       PRES   REMARKS
WEST MEMPHIS   CLEAR     62  49  62 CALM      30.10S
$$

ARZ050-053-066-070-073-200000-
SOUTHWEST ARKANSAS

CITY           SKY/WX    TMP DP  RH WIND       PRES   REMARKS
ARKADELPHIA    FAIR      67  52  58 CALM      30.10F
CAMDEN         CLEAR     70  46  43 CALM      30.09S
TEXARKANA      CLEAR     69  49  48 CALM      30.08F
EL DORADO      CLEAR     68  51  54 CALM      30.10S
DE QUEEN       CLEAR     68  49  50 SE3       30.07F
$$

ARZ056-057-069-200000-
SOUTHEAST ARKANSAS

CITY           SKY/WX    TMP DP  RH WIND       PRES   REMARKS
PINE BLUFF     CLEAR     67  45  45 E5        30.10F
STUTTGART      CLEAR     64  45  48 NE6       30.11S
MONTICELLO     CLEAR     67  48  50 CALM      30.10S

$$





USA.gov is the U.S. government's official web portal to all federal, state and local government web resources and services.